Screenshot 2020-03-10 at 16.31.56

Aviation Academy

Online Aviation Academy is a modern learning system, bundled with key enterprise functionality ranging from skill-gap analysis and branch management to tailor-made reports. Our unique TCExam is a system for electronic exams (also know as CBA – Computer-Based Assessment, CBT – Computer-Based Testing or e-exam) that enables educators and trainers to  deliver, and report on quizzes, tests and exams.

Koos Myburgh’s book has become a popular training tool for many helicopter pilots starting out on their aviation path. The book is detailed and informative.

About the author

He joined the South African Air Force as a pupil pilot in 1979. Completed training on Harvards and the Alouette III; received his Wings in 1981.
During his 18 year Air Force career he also flew the Puma, Oryx (Super Puma) and the Dauphin. He gave instruction on all the types. He qualified as a NVIS instructor, as well.
After his resignation, he was employed as CFI at Helicopters Unlimited and later as Director Training at the Starlite Aviation Group.
Since his qualification as Instructor during 1988, he gathered 8000 hours of instruction and a total of 12600 hours.
He holds ratings on 32 types/variants of aircraft and was appointed as a SACAA Designated Flight Examiner in 2012.

ONLINE LEARNING

Don’t just read about it, Learn about it…

Let us help you reach the sky.

Durban FALE METAR & TAF

FALE 242200Z 17010KT 9999 FEW021 BKN035 21/17 Q1015 NOSIG

TAF FALE 241600Z 2418/2524 16010KT 9999 BKN020 TX21/2512Z TN18/2503Z TEMPO 2418/2508 3000 -RA BKN005 OVC015 PROB40 TEMPO 2512/2521 5000 -RA BKN005 BKN010 BECMG 2518/2520 VRB03KT

George FAGG METAR & TAF

FAGG 242200Z AUTO 29006KT 250V330 9999 OVC036/// 13/11 Q1018

TAF FAGG 241600Z 2418/2518 23012KT 9999 BKN035 TX20/2512Z TN12/2504Z BECMG 2509/2511 21012KT

error: NO! Content is protected !!
Scroll to Top